Flag for Portugal Weather past 2 weeks in Faro, Portugal

Now
79 °F

Sunny.


Feels Like: 80 °F
Forecast: 68 / 79 °F
Wind: 9 mph from East

Location: Faro / Aeroporto

Current Time: Sep 30, 2014 at 12:10:28 PM

Latest Report: Sep 30, 2014 at 11:30 AM


Visibility: 10 mi

Pressure: 30.15 "Hg

Humidity: 48%

Dew point: 57 °F

Location of FaroLocation

Historic Weather in Faro — Graph

°F

Faro temperature yesterday

Maximum temperature yesterday: 77 °F (at 2:00 PM)
Minimum temperature yesterday: 64 °F (at 5:00 AM)
Average temperature yesterday: 71 °F

Past Weeks' High & Low Weather Summary

 TemperatureHumidityPressure
High77 °F (Sep 15, 12:00 PM)100% (Sep 19, 10:30 AM)30.18 "Hg (Sep 19, 10:30 AM)
Low63 °F (Sep 22, 4:00 AM)47% (Sep 30, 10:30 AM)29.71 "Hg (Sep 16, 4:30 AM)
Average70 °F82%29.97 "Hg
* Reported Sep 15 11:00 AM — Sep 30 11:00 AM, Faro, Weather by CustomWeather, © 2014

Note: Actual official high and low records may vary slightly from our data, if they occured in-between our weather recording intervals... More about our weather records

Advertising

Faro weather history for previous 24 hours

 ConditionsComfort  
Time TempWeatherWind HumidityBarometerVisibility
11:00 AM
Sep 30
77 °FPassing clouds.10 mph51%30.15 "HgN/A
10:30 AM77 °FPassing clouds.13 mph47%30.12 "HgN/A
10:00 AM75 °FPassing clouds.10 mph50%30.15 "HgN/A
9:30 AM73 °FPassing clouds.9 mph53%30.15 "HgN/A
9:00 AM72 °FSunny.13 mph53%30.12 "Hg10 mi
8:30 AM72 °FSunny.12 mph57%30.12 "Hg10 mi
8:00 AM70 °FClear.9 mph60%30.12 "Hg10 mi
7:30 AM70 °FPassing clouds.9 mph60%30.12 "HgN/A
7:00 AM70 °FClear.10 mph60%30.12 "Hg10 mi
6:30 AM70 °FClear.9 mph60%30.12 "Hg10 mi
6:00 AM70 °FClear.8 mph60%30.12 "Hg10 mi
5:30 AM70 °FClear.9 mph64%30.12 "Hg10 mi
5:00 AM70 °FClear.8 mph60%30.12 "Hg10 mi
4:30 AM70 °FClear.9 mph64%30.12 "Hg10 mi
4:00 AM70 °FClear.12 mph64%30.12 "Hg10 mi
3:30 AM70 °FClear.10 mph64%30.12 "Hg10 mi
3:00 AM72 °FClear.9 mph61%30.12 "Hg10 mi
2:30 AM72 °FClear.8 mph61%30.12 "Hg10 mi
2:00 AM72 °FClear.9 mph61%30.12 "Hg10 mi
1:30 AM72 °FClear.14 mph65%30.15 "Hg10 mi
1:00 AM72 °FClear.14 mph61%30.15 "Hg10 mi
12:30 AM72 °FClear.12 mph61%30.15 "Hg10 mi
12:00 AM72 °FClear.10 mph61%30.15 "Hg10 mi
11:30 PM
Sep 29
72 °FClear.10 mph61%30.15 "Hg10 mi
11:00 PM72 °FPassing clouds.10 mph61%30.15 "HgN/A
10:30 PM72 °FPassing clouds.8 mph65%30.18 "HgN/A
10:00 PM72 °FClear.9 mph65%30.18 "Hg10 mi
9:30 PM72 °FClear.10 mph69%30.18 "Hg10 mi
9:00 PM73 °FClear.10 mph65%30.15 "Hg10 mi
8:30 PM73 °FClear.12 mph61%30.15 "Hg10 mi
8:00 PM73 °FSunny.7 mph69%30.15 "Hg10 mi
7:30 PM73 °FPassing clouds.5 mph74%30.15 "HgN/A
7:00 PM73 °FPassing clouds.7 mph74%30.12 "HgN/A
6:30 PM75 °FPassing clouds.7 mph69%30.12 "HgN/A
6:00 PM75 °FPassing clouds.10 mph61%30.12 "HgN/A
5:30 PM75 °FPassing clouds.10 mph65%30.12 "HgN/A
5:00 PM75 °FPassing clouds.10 mph61%30.12 "HgN/A
4:30 PM73 °FPassing clouds.9 mph69%30.12 "HgN/A
4:00 PM73 °FPassing clouds.10 mph74%30.12 "HgN/A
3:30 PM73 °FScattered clouds.6 mph74%30.15 "HgN/A
3:00 PM73 °FSprinkles. Scattered clouds.7 mph74%30.15 "HgN/A
2:30 PM77 °FScattered showers. Scattered clouds.9 mph65%30.15 "HgN/A
2:00 PM77 °FPassing clouds.9 mph61%30.15 "HgN/A
1:30 PM75 °FPassing clouds.9 mph65%30.15 "HgN/A
1:00 PM73 °FPassing clouds.9 mph69%30.18 "HgN/A
12:30 PM73 °FPassing clouds.9 mph74%30.18 "HgN/A
12:00 PM73 °FSunny.9 mph74%30.18 "Hg10 mi
Weather by CustomWeather, © 2014

See weather overviewHow to use our weather pages